TimeMST,TemperatureF,Dew PointF,Humidity,Sea Level PressureIn,VisibilityMPH,Wind Direction,Wind SpeedMPH,Gust SpeedMPH,PrecipitationIn,Events,Conditions,WindDirDegrees,DateUTC
12:53 AM,17.1,5.0,59,30.01,10.0,Calm,Calm,-,N/A,,Overcast,0,2012-12-10 07:53:00
1:53 AM,17.1,9.0,71,29.98,10.0,Calm,Calm,-,N/A,,Overcast,0,2012-12-10 08:53:00
2:53 AM,19.9,7.0,57,29.96,10.0,SW,10.4,-,N/A,,Overcast,220,2012-12-10 09:53:00
3:53 AM,21.0,9.0,60,29.94,10.0,SW,11.5,20.7,0.01,,Overcast,220,2012-12-10 10:53:00
4:53 AM,23.0,10.0,58,29.96,10.0,SW,11.5,-,N/A,,Overcast,230,2012-12-10 11:53:00
5:53 AM,21.9,12.0,66,29.96,10.0,WSW,11.5,-,0.00,,Overcast,240,2012-12-10 12:53:00
6:43 AM,21.2,14.0,74,29.80,6.0,West,12.7,-,0.00,Snow,Light Snow,260,2012-12-10 13:43:00
6:53 AM,21.0,14.0,74,29.97,5.0,West,11.5,-,0.00,Snow,Light Snow,260,2012-12-10 13:53:00
7:05 AM,21.2,15.8,80,29.80,2.0,West,13.8,-,0.00,Snow,Light Snow,260,2012-12-10 14:05:00
7:40 AM,21.2,17.6,86,29.79,1.5,West,15.0,-,0.00,Snow,Light Snow,260,2012-12-10 14:40:00
7:51 AM,21.2,17.6,86,29.80,2.0,West,13.8,-,0.01,Snow,Light Snow,260,2012-12-10 14:51:00
7:53 AM,21.0,18.0,88,29.96,2.5,West,13.8,-,0.01,Snow,Light Snow,260,2012-12-10 14:53:00
8:03 AM,21.2,17.6,86,29.80,4.0,West,12.7,-,0.00,Snow,Light Snow,260,2012-12-10 15:03:00
8:27 AM,21.2,19.4,93,29.79,2.0,West,11.5,-,0.00,Snow,Light Snow,260,2012-12-10 15:27:00
8:53 AM,23.0,19.0,85,29.97,7.0,West,11.5,-,0.00,,Overcast,270,2012-12-10 15:53:00
9:53 AM,26.1,19.9,78,29.97,10.0,West,12.7,-,N/A,,Mostly Cloudy,280,2012-12-10 16:53:00
10:53 AM,27.0,21.0,78,29.97,10.0,WNW,15.0,-,N/A,,Mostly Cloudy,290,2012-12-10 17:53:00
11:53 AM,27.0,21.9,81,29.97,10.0,WNW,19.6,-,0.00,,Overcast,300,2012-12-10 18:53:00
12:11 PM,26.6,23.0,86,29.81,2.5,WNW,16.1,-,0.00,Snow,Light Snow,290,2012-12-10 19:11:00
12:20 PM,26.6,21.2,80,29.81,4.0,WNW,18.4,-,0.00,,Haze,300,2012-12-10 19:20:00
12:45 PM,26.6,19.4,74,29.81,10.0,NW,20.7,34.5,0.00,,Overcast,310,2012-12-10 19:45:00
12:53 PM,27.0,19.9,75,29.94,10.0,WNW,21.9,27.6,0.00,,Overcast,300,2012-12-10 19:53:00
1:19 PM,26.6,21.2,80,29.81,7.0,NW,21.9,-,0.00,Snow,Light Snow,310,2012-12-10 20:19:00
1:28 PM,26.6,21.2,80,29.82,9.0,NW,18.4,26.5,0.00,Snow,Light Snow,310,2012-12-10 20:28:00
1:40 PM,26.6,21.2,80,29.82,9.0,NW,19.6,-,0.00,Snow,Light Snow,310,2012-12-10 20:40:00
1:53 PM,27.0,21.0,78,29.96,9.0,NW,18.4,-,0.00,,Overcast,310,2012-12-10 20:53:00
2:31 PM,26.6,21.2,80,29.83,2.5,WNW,15.0,-,0.00,Snow,Light Snow,300,2012-12-10 21:31:00
2:35 PM,26.6,21.2,80,29.83,3.0,WNW,15.0,-,0.00,Snow,Light Snow,300,2012-12-10 21:35:00
2:53 PM,26.1,21.0,81,29.97,4.0,NW,16.1,-,0.00,Snow,Light Snow,310,2012-12-10 21:53:00
2:57 PM,26.6,21.2,80,29.84,1.5,NW,18.4,-,0.00,Snow,Light Snow,320,2012-12-10 21:57:00
3:03 PM,24.8,21.2,86,29.84,0.5,NW,12.7,23.0,0.00,Fog-Snow,Snow,310,2012-12-10 22:03:00
3:11 PM,24.8,23.0,93,29.85,1.0,WNW,12.7,-,0.00,Snow,Light Snow,300,2012-12-10 22:11:00
3:32 PM,24.8,23.0,93,29.85,0.8,NW,16.1,21.9,0.00,Snow,Light Snow,310,2012-12-10 22:32:00
3:40 PM,24.8,21.2,86,29.86,1.8,WNW,16.1,-,0.00,Snow,Light Snow,300,2012-12-10 22:40:00
3:42 PM,24.8,21.2,86,29.85,4.0,WNW,18.4,-,0.01,Snow,Light Snow,300,2012-12-10 22:42:00
3:53 PM,24.1,21.0,88,29.99,9.0,WNW,16.1,-,0.01,,Mostly Cloudy,300,2012-12-10 22:53:00
4:53 PM,21.9,19.0,89,30.00,10.0,WNW,9.2,-,N/A,,Mostly Cloudy,290,2012-12-10 23:53:00
5:53 PM,23.0,19.9,88,30.00,10.0,WNW,12.7,-,N/A,,Mostly Cloudy,290,2012-12-11 00:53:00
6:53 PM,18.0,16.0,92,30.02,10.0,West,10.4,-,N/A,,Clear,270,2012-12-11 01:53:00
7:53 PM,18.0,15.1,88,30.02,10.0,WSW,12.7,-,N/A,,Clear,250,2012-12-11 02:53:00
8:53 PM,19.9,15.1,81,30.00,10.0,West,11.5,-,N/A,,Clear,260,2012-12-11 03:53:00
9:53 PM,21.0,15.1,78,29.99,10.0,West,12.7,-,N/A,,Mostly Cloudy,260,2012-12-11 04:53:00
10:53 PM,21.0,14.0,74,29.99,10.0,West,12.7,-,N/A,,Mostly Cloudy,270,2012-12-11 05:53:00
11:53 PM,19.9,12.9,74,29.99,10.0,West,12.7,-,N/A,,Scattered Clouds,260,2012-12-11 06:53:00